Wetbulb
50.75 50.22 50.33 50.36 51.79 52.43 51.56 52.67 52.91 54.29 54.65 55.08 55.44 55.66 54.84 54.39 53.96 54.63 56.22 59.88 56.33 51.46 56.12 56.66 55.89 55.50 54.73 56.43 50.55 57.70 56.77 57.34 55.60 51.72 49.90 49.43 49.90 50.50 49.39 51.54 50.12 48.54 47.62 47.53 49.04 46.62 43.69 56.20 56.08 51.21 54.67 57.35 57.05 55.42
50.79 50.24 50.09 50.05 51.61 51.85 52.09 52.45 52.75 54.08 54.24 54.94 55.38 55.50 54.78 54.31 53.59 52.30 55.23 59.10 58.88 54.15 55.46 58.27 58.04 58.07 56.50 56.33 54.87 59.32 57.95 57.70 58.36 55.72 53.55 49.99 51.12 50.96 50.72 45.17 54.48 48.46 53.96 52.24 51.87 51.23 53.80 55.65 54.93 56.81 55.88 53.01 52.49 51.93
50.40 50.63 50.09 49.94 50.81 52.19 52.09 52.31 52.86 53.61 54.16 54.79 55.08 55.18 54.80 53.91 52.87 51.50 56.89 58.42 55.61 51.62 52.28 55.79 54.93 56.62 58.99 58.22 60.04 54.89 58.98 59.68 60.32 62.70 56.90 55.18 50.73 54.15 48.26 49.45 51.53 55.57 57.76 53.20 53.63 52.63 53.17 55.11 55.62 55.16 53.41 51.65 52.02 52.27
50.09 50.45 50.11 50.05 50.80 51.74 52.03 52.19 52.57 52.90 53.94 54.39 54.51 54.55 53.74 52.64 52.54 52.75 53.72 57.26 55.42 52.25 48.65 52.59 57.72 55.62 57.21 59.42 58.93 61.02 59.45 60.81 61.85 60.11 56.47 53.02 52.18 56.60 50.80 53.87 52.70 52.95 56.10 53.12 53.42 52.41 53.77 54.01 54.44 54.13 54.28 54.22 53.77 53.48
49.88 50.23 50.02 49.91 50.01 51.10 51.70 51.86 52.29 52.75 53.83 54.20 54.02 53.50 52.83 52.20 52.20 54.96 56.56 57.55 58.08 53.01 47.84 50.31 55.67 57.44 58.41 59.09 57.78 59.42 60.25 60.30 58.51 55.61 54.38 53.04 57.00 56.16 55.64 55.22 52.06 56.09 54.83 53.89 53.16 56.05 53.64 53.84 56.84 57.31 55.94 55.71 56.06 55.41
49.36 49.87 50.31 49.62 49.78 49.93 51.33 51.96 52.10 53.27 53.67 53.85 53.80 53.30 52.41 51.77 51.89 52.79 48.60 54.89 57.07 56.18 49.99 44.73 56.07 55.89 57.20 58.62 57.37 57.82 59.63 59.41 58.68 57.15 56.09 56.63 59.26 56.00 51.18 51.12 55.37 57.70 59.09 59.49 56.29 59.08 56.89 57.88 57.74 58.12 56.22 55.76 56.58 57.07
48.51 49.82 50.00 49.54 49.31 49.42 50.00 51.78 52.64 52.73 52.59 52.70 52.60 52.33 51.88 51.19 52.62 48.76 49.30 52.46 53.60 56.82 50.26 48.74 48.44 55.22 57.48 57.99 57.64 57.74 59.09 58.43 56.77 56.54 54.88 55.32 55.44 54.26 51.65 47.97 55.66 58.45 59.12 59.28 58.72 57.75 56.19 56.89 56.38 57.22 57.07 56.99 56.14 58.04
47.38 48.97 49.77 50.18 49.53 49.12 49.82 50.25 51.09 51.29 51.26 51.14 50.98 50.62 50.22 50.29 49.77 49.28 53.46 52.00 54.18 52.10 52.53 48.39 48.38 50.59 57.22 53.39 52.72 58.27 55.15 56.40 55.85 54.66 55.87 53.26 55.25 54.05 50.97 55.11 56.80 58.62 58.89 58.16 58.35 57.98 57.71 58.81 58.09 57.24 57.83 57.35 56.32 56.12
46.72 47.74 49.16 49.67 49.92 49.33 49.16 49.56 49.96 51.01 50.98 51.20 51.07 50.98 50.76 50.07 49.37 52.46 52.07 51.75 57.58 54.38 49.17 49.83 45.86 44.71 55.29 53.93 54.14 54.77 55.87 50.76 56.29 52.25 52.21 54.22 50.78 48.37 53.00 53.72 55.54 57.99 57.62 56.82 58.76 58.99 58.42 56.69 56.23 56.47 56.23 55.15 53.98 53.69
46.15 47.01 48.46 49.37 49.89 49.60 48.99 49.34 49.83 50.46 50.78 50.79 50.87 49.25 45.87 51.26 52.52 53.18 51.73 49.22 49.10 51.21 52.13 48.76 53.76 48.37 52.04 52.42 51.48 51.72 52.31 49.99 47.92 50.40 54.24 49.70 49.73 56.40 56.83 56.58 58.36 58.18 59.73 59.02 56.96 55.73 55.63 55.33 55.22 54.66 53.79 53.69 53.30 52.78
45.65 46.37 47.54 48.83 49.35 49.69 49.47 49.26 49.87 50.51 49.84 49.89 47.65 47.93 51.85 52.12 53.37 51.12 45.01 43.87 45.10 43.54 48.75 51.59 51.96 49.14 53.68 48.89 48.95 52.89 49.42 50.96 46.14 49.44 48.62 47.58 47.70 53.18 56.38 56.80 58.62 59.49 59.85 59.23 58.67 58.31 58.13 56.85 55.12 53.68 52.64 52.87 53.27 53.35
45.51 46.81 46.60 47.30 49.03 49.61 49.61 49.52 49.52 49.50 49.88 48.10 51.36 52.67 52.39 49.55 48.32 43.67 42.00 44.69 42.89 41.45 47.33 49.12 50.97 52.15 53.52 56.58 50.72 51.72 47.86 49.85 43.70 53.13 48.56 47.04 52.62 55.97 56.02 56.92 58.57 59.85 59.67 58.84 58.63 57.18 56.77 55.45 54.52 53.89 53.43 53.20 53.04 53.25
45.79 46.44 45.51 45.96 47.22 49.47 49.55 49.11 47.84 48.66 49.07 51.87 49.76 46.39 46.63 44.77 38.50 38.63 36.08 39.88 40.96 45.65 48.43 50.93 49.17 52.30 53.57 54.86 50.64 49.23 45.38 45.54 52.90 47.54 45.93 51.17 55.44 56.00 56.97 57.91 58.06 58.89 58.46 57.73 56.39 55.87 54.89 54.44 54.65 54.04 53.08 53.22 53.38 52.82
46.60 45.85 45.47 45.47 46.54 49.28 48.72 49.30 49.28 49.60 48.89 46.22 43.76 37.43 40.98 38.75 41.33 42.66 42.23 43.85 46.90 47.22 49.36 51.48 50.45 50.54 51.48 49.53 49.41 44.85 48.54 49.16 44.18 43.04 45.00 53.35 55.69 56.66 57.32 57.93 57.46 56.86 56.85 55.79 54.93 54.87 54.65 54.27 53.82 53.74 53.58 53.67 53.25 52.38
46.15 45.44 45.45 45.39 47.62 49.22 49.19 48.89 49.28 51.07 47.88 42.99 43.58 38.65 40.82 46.54 46.95 47.70 48.62 48.72 49.27 50.15 51.19 50.79 51.01 51.74 49.20 47.13 49.59 47.65 44.46 42.08 44.53 45.53 51.51 55.30 57.19 57.23 57.12 57.03 56.26 56.57 55.86 55.16 55.23 54.69 54.48 54.23 53.62 53.02 53.84 54.30 53.93 53.50
45.60 44.59 44.27 45.60 48.69 48.97 49.05 49.61 49.61 49.79 46.84 44.95 44.68 41.83 45.61 44.53 44.90 46.69 47.73 47.63 50.85 51.11 52.81 52.12 48.55 46.39 46.09 47.25 44.57 43.10 42.48 42.10 46.41 51.45 55.62 57.20 57.36 57.32 57.05 57.23 56.51 56.03 56.00 55.96 55.73 55.32 54.54 53.94 53.51 53.31 53.96 53.80 52.86 51.76
44.99 42.77 44.79 46.92 48.42 48.25 48.76 48.94 47.37 44.57 43.54 42.96 42.96 48.07 47.07 47.73 45.77 47.18 48.88 49.40 51.75 50.24 47.60 48.84 44.11 43.74 48.56 44.46 43.09 47.31 45.44 49.13 52.45 54.47 56.60 57.78 57.43 57.73 57.80 57.55 55.71 56.48 56.25 56.14 55.64 55.31 54.49 54.86 54.51 53.33 52.09 52.48 53.31 53.46
43.41 46.69 48.84 48.19 48.54 47.29 48.15 47.47 45.77 44.74 41.99 46.21 44.84 46.75 47.97 49.80 49.02 49.35 51.61 51.94 49.93 49.67 50.21 47.03 51.29 45.58 43.95 42.48 44.46 48.55 51.61 54.14 55.74 56.28 56.84 57.51 58.33 58.75 57.79 57.16 57.09 56.77 56.24 55.71 55.17 54.71 54.90 54.08 52.95 52.32 53.08 52.68 51.98 52.31
46.05 48.08 48.40 48.32 48.42 48.01 45.07 45.75 47.23 42.63 46.46 49.03 49.36 50.38 50.69 50.74 52.86 53.19 53.99 52.86 52.88 53.53 51.60 50.11 45.97 45.45 46.78 51.13 49.97 51.14 52.54 54.35 54.55 56.33 56.49 58.41 58.58 57.94 57.55 57.50 57.20 56.63 55.93 55.50 55.00 54.43 54.34 54.29 53.08 52.59 52.26 52.53 50.51 51.24
47.81 47.71 47.95 48.09 48.51 47.75 42.56 45.00 50.48 46.10 45.32 48.39 49.96 49.26 50.45 50.58 52.45 53.18 52.61 52.37 51.80 50.97 48.33 46.67 47.61 49.38 50.33 52.16 53.92 54.02 54.42 55.93 56.08 54.69 55.08 56.61 57.76 57.81 57.26 56.95 55.74 56.39 55.71 55.49 55.40 48.89 53.72 52.98 53.65 54.38 52.25 51.85 51.70 51.11
46.37 48.08 47.48 49.72 50.60 49.12 45.99 46.30 46.02 47.28 48.79 48.00 49.74 49.74 48.99 51.11 50.32 50.33 51.02 53.39 49.59 47.27 46.37 49.86 51.04 54.16 56.48 56.37 57.37 56.91 56.58 56.66 55.52 55.50 55.16 54.28 57.05 57.18 56.67 55.76 56.65 55.80 54.35 53.81 51.95 51.39 49.75 51.64 52.09 52.57 52.74 52.26 52.72 52.75
49.23 47.67 49.71 49.22 46.69 46.41 46.05 49.32 46.66 48.79 48.25 48.03 48.65 49.49 46.96 46.47 47.43 48.62 51.33 48.42 48.72 48.78 51.98 52.93 53.98 55.16 54.59 54.51 56.41 57.40 58.09 57.89 58.49 54.96 51.00 52.05 56.52 55.26 55.54 55.72 54.98 53.51 53.64 53.14 53.41 51.85 52.68 52.39 53.44 52.53 52.22 52.10 49.56 52.84
45.75 48.60 48.56 47.15 41.85 41.25 40.85 49.49 43.94 45.39 42.50 44.64 47.97 44.94 45.93 46.01 48.51 50.88 47.13 47.97 49.55 54.15 54.79 55.24 55.50 56.92 55.73 56.80 57.78 58.01 58.40 57.86 56.77 56.27 56.18 56.14 55.78 56.39 55.14 55.09 55.24 53.68 53.08 54.19 55.22 54.35 53.40 47.68 50.95 52.88 53.53 53.55 52.09 53.54
42.69 46.09 42.70 42.05 41.70 38.11 44.12 42.22 46.03 45.23 45.54 44.17 43.01 39.98 43.32 46.44 49.59 47.24 43.82 47.24 50.57 52.75 53.15 55.14 55.13 54.54 55.44 56.04 55.44 55.56 56.67 57.15 55.92 56.15 57.02 55.88 54.28 55.05 56.38 55.24 54.92 55.22 55.44 54.79 53.42 54.33 54.83 54.43 49.45 53.12 52.41 52.58 51.86 51.85
39.22 38.30 40.38 35.69 43.41 38.96 37.62 38.58 39.28 40.77 37.59 40.26 38.89 40.04 43.23 46.90 43.37 42.32 42.55 46.57 49.46 50.59 52.06 53.82 53.80 55.16 53.47 53.96 55.58 55.74 57.76 56.19 54.28 53.72 55.71 56.25 54.85 55.12 54.97 55.46 54.60 56.04 56.08 53.76 52.92 53.42 54.58 54.16 54.02 53.35 53.42 52.66 51.91 50.62
33.30 39.35 37.03 40.17 40.82 38.72 39.43 36.52 37.79 38.27 39.16 38.54 40.32 44.46 45.25 43.54 39.14 38.64 43.65 46.92 48.91 50.23 51.40 52.33 52.41 52.63 52.95 53.82 53.38 54.79 56.21 57.00 56.20 54.08 55.27 56.49 56.19 55.12 53.90 52.48 51.95 53.59 56.37 55.88 54.18 53.11 52.57 53.33 54.06 53.83 52.89 51.57 40.60 51.10
33.61 38.16 42.73 47.39 45.80 43.37 42.54 44.38 44.70 41.47 37.94 37.42 41.23 41.17 41.41 37.46 38.14 43.78 48.83 52.31 51.37 52.49 54.37 54.15 54.04 53.77 53.26 53.66 54.95 56.37 56.74 56.76 55.77 55.05 56.83 56.87 56.61 56.58 54.31 51.95 51.88 54.33 55.85 54.73 55.60 54.69 53.07 52.47 52.12 52.39 53.15 53.28 52.81 52.64
41.43 42.67 38.06 41.93 42.55 45.01 39.62 40.70 39.86 39.19 40.56 44.58 44.53 39.09 38.72 39.76 42.54 49.70 52.76 55.51 56.35 56.48 55.05 55.40 55.87 55.60 55.26 55.69 55.71 55.91 55.83 56.47 57.00 56.60 56.57 56.43 57.01 57.38 56.54 56.53 56.72 41.42 54.51 55.86 55.34 55.00 53.99 53.50 52.82 52.17 52.63 52.95 53.85 53.57
41.23 44.56 42.98 40.01 40.22 40.81 40.90 40.97 41.76 44.69 47.50 45.24 42.34 41.80 43.78 49.06 51.12 52.01 54.47 55.03 55.89 54.84 53.18 53.10 54.10 55.76 55.68 56.16 56.17 56.09 55.91 55.11 52.98 51.06 50.33 49.71 50.18 51.54 54.29 54.91 55.41 55.57 55.35 54.69 39.39 44.66 52.46 52.42 53.59 55.17 54.56 54.44 54.56 54.49
42.58 45.61 41.08 39.95 38.36 38.49 42.81 46.31 45.97 49.58 49.04 48.31 49.69 49.32 49.11 51.14 52.94 54.84 53.96 53.58 52.91 53.52 53.52 54.05 54.43 54.32 53.82 53.62 53.23 53.71 55.41 55.76 55.05 52.59 49.77 49.28 51.22 53.69 53.71 53.60 53.48 53.92 54.18 55.11 54.30 54.39 35.81 47.80 46.61 53.53 52.46 53.96 53.59 51.45
47.06 45.23 41.89 42.84 42.10 45.08 46.37 47.56 49.95 49.16 48.83 48.73 49.30 47.82 46.71 50.32 53.03 54.71 54.60 55.60 54.56 54.35 53.81 53.15 53.86 54.53 53.84 53.45 52.91 52.45 51.65 54.74 55.06 54.67 54.70 54.35 54.09 54.43 54.38 54.52 55.29 55.74 55.74 54.74 53.46 54.08 53.50 52.46 52.55 52.75 52.94 53.05 52.24 50.19
45.68 43.52 43.13 40.39 43.65 47.45 49.37 46.99 46.57 45.83 46.78 46.47 46.85 49.19 49.30 48.83 47.11 51.19 53.86 53.70 52.67 51.41 43.97 49.84 51.49 52.23 54.60 55.32 55.23 53.52 39.52 53.59 54.30 54.46 54.07 53.98 53.73 54.91 55.91 55.46 55.74 55.29 54.84 54.16 53.28 54.04 53.53 53.10 51.65 52.80 52.98 52.54 52.59 51.93
44.81 45.21 45.47 43.19 43.81 43.50 47.26 46.80 46.16 45.51 46.96 46.30 46.64 48.15 47.59 47.29 44.84 50.19 54.66 54.75 53.09 52.30 51.97 52.36 53.52 53.72 54.42 54.26 54.24 53.53 45.58 54.93 48.47 36.33 36.87 35.60 35.97 43.23 53.25 54.69 54.36 54.81 53.69 54.24 53.14 53.24 53.01 52.74 52.44 52.53 51.28 51.74 51.66 50.96
MSLP
1011.15 1010.37 1009.63 1008.30 1006.40 1005.41 1006.33 1007.17 1007.89 1007.97 1009.22 1010.15 1010.85 1011.64 1012.33 1012.94 1013.28 1013.01 1011.75 1011.80 1011.17 1008.73 1008.38 1008.48 1008.59 1007.86 1007.66 1006.41 1006.99 1006.03 1006.19 1005.65 1005.41 1003.95 1003.26 1003.04 1002.89 1004.29 1003.81 1004.58 1005.66 1005.44 1005.66 1005.70 1006.81 1007.50 1009.52 1010.82 1009.69 1010.97 1012.85 1012.91 1013.37 1013.30
1011.13 1010.40 1009.58 1008.40 1007.27 1006.60 1006.85 1007.58 1008.30 1008.79 1009.51 1010.25 1011.00 1011.81 1012.25 1012.75 1013.43 1013.48 1011.78 1011.92 1012.02 1010.08 1009.65 1009.71 1009.44 1009.49 1009.31 1008.99 1008.70 1006.81 1005.94 1005.19 1005.35 1004.21 1004.93 1005.32 1003.48 1005.30 1004.45 1005.09 1006.14 1006.34 1006.69 1007.56 1008.91 1010.50 1012.26 1012.64 1013.11 1013.86 1014.38 1014.80 1015.09 1014.96
1011.27 1010.58 1009.87 1008.81 1008.03 1007.74 1007.90 1008.38 1008.82 1009.26 1009.94 1010.51 1011.21 1011.86 1012.60 1013.14 1013.43 1013.58 1012.31 1011.92 1011.14 1010.53 1009.43 1009.17 1008.97 1009.46 1009.43 1009.33 1009.17 1008.87 1006.89 1007.06 1006.50 1006.47 1005.15 1004.85 1004.55 1004.86 1005.15 1005.16 1006.42 1006.69 1007.17 1007.76 1009.60 1012.05 1012.75 1013.45 1014.15 1014.60 1015.06 1015.28 1015.46 1015.39
1011.54 1010.91 1010.40 1009.43 1008.22 1008.21 1008.53 1008.86 1009.26 1009.77 1010.31 1010.87 1011.44 1012.27 1012.64 1013.65 1013.92 1013.72 1012.47 1011.80 1011.91 1010.86 1008.87 1009.03 1009.31 1009.45 1009.78 1009.50 1009.30 1008.77 1008.05 1007.74 1007.24 1006.10 1005.42 1005.33 1005.02 1005.97 1005.78 1006.28 1006.60 1007.34 1006.56 1007.88 1010.56 1012.39 1013.14 1013.74 1014.39 1014.95 1015.11 1015.23 1015.28 1015.36
1011.91 1011.30 1010.88 1010.23 1009.42 1008.94 1008.97 1009.32 1009.73 1010.17 1010.68 1011.25 1011.97 1012.61 1013.29 1013.84 1013.79 1013.16 1012.48 1012.66 1012.59 1012.03 1009.69 1008.51 1009.19 1009.54 1009.60 1009.49 1009.05 1008.63 1008.17 1007.61 1006.43 1006.21 1005.94 1005.74 1006.04 1006.72 1006.25 1006.54 1006.69 1007.18 1007.09 1008.48 1009.99 1011.47 1012.47 1013.35 1014.21 1014.15 1013.86 1014.15 1014.35 1014.51
1012.36 1011.73 1011.35 1011.02 1010.32 1009.69 1009.08 1009.28 1009.90 1010.26 1010.87 1011.43 1012.14 1012.71 1013.61 1013.95 1013.86 1013.42 1012.95 1012.77 1012.59 1012.43 1010.87 1008.87 1008.83 1009.09 1009.21 1009.03 1008.81 1008.55 1008.12 1007.63 1006.80 1006.27 1006.05 1006.51 1007.87 1008.01 1007.16 1006.99 1007.37 1007.49 1007.89 1009.09 1010.24 1011.07 1012.07 1013.26 1013.68 1013.80 1014.00 1014.34 1014.40 1014.48
1012.69 1012.21 1011.80 1011.64 1011.30 1010.77 1010.14 1009.53 1010.14 1010.58 1011.29 1011.92 1012.77 1013.53 1013.92 1014.28 1013.91 1014.25 1013.66 1013.57 1012.99 1012.82 1011.07 1009.09 1008.61 1009.00 1008.95 1008.86 1008.54 1008.35 1008.58 1007.73 1007.37 1006.89 1007.30 1006.86 1007.66 1008.43 1007.18 1007.60 1008.02 1008.39 1009.28 1010.06 1010.79 1011.50 1012.38 1013.10 1013.30 1013.79 1014.16 1014.31 1014.55 1014.37
1012.94 1012.58 1012.20 1011.99 1011.95 1011.77 1011.53 1011.34 1011.18 1011.37 1011.85 1012.56 1013.19 1013.98 1014.37 1014.34 1014.67 1014.31 1013.90 1013.95 1013.59 1012.26 1011.05 1008.49 1008.11 1008.91 1009.08 1008.25 1008.01 1008.05 1007.94 1008.06 1008.03 1007.33 1007.60 1007.68 1007.57 1007.95 1007.38 1008.08 1008.50 1008.64 1009.61 1010.47 1010.87 1011.47 1011.96 1012.72 1013.35 1013.82 1013.95 1014.01 1014.12 1014.29
1013.15 1012.88 1012.57 1012.36 1012.40 1012.45 1012.45 1012.42 1012.40 1012.51 1012.73 1013.41 1013.95 1014.52 1015.13 1015.18 1013.73 1013.33 1013.94 1014.10 1013.20 1012.65 1010.13 1008.68 1007.55 1007.64 1008.95 1007.98 1008.16 1008.53 1007.80 1007.49 1007.75 1007.62 1007.31 1007.71 1007.07 1007.16 1007.06 1008.75 1008.07 1008.97 1009.65 1010.44 1010.83 1011.40 1012.11 1012.67 1013.25 1013.70 1014.00 1014.33 1014.48 1014.79
1013.27 1013.09 1012.92 1012.69 1012.64 1012.89 1013.08 1013.19 1013.25 1013.32 1013.56 1013.80 1013.90 1013.50 1013.02 1012.91 1013.54 1013.65 1014.19 1013.11 1012.52 1011.45 1010.74 1008.71 1007.22 1007.34 1008.02 1007.27 1007.92 1007.90 1008.22 1007.25 1006.87 1007.19 1007.33 1007.57 1006.48 1007.22 1007.95 1008.25 1008.35 1008.90 1009.40 1010.16 1010.69 1011.44 1012.24 1012.82 1013.37 1013.80 1014.24 1014.61 1014.91 1015.22
1013.23 1013.19 1013.16 1013.04 1012.97 1013.14 1013.46 1013.69 1013.79 1013.87 1013.98 1013.53 1012.44 1012.24 1013.40 1013.65 1013.18 1012.09 1011.88 1011.36 1010.76 1010.17 1009.29 1007.95 1007.22 1007.23 1007.23 1007.22 1007.18 1007.55 1007.60 1006.96 1006.37 1006.74 1007.10 1006.66 1006.44 1007.17 1008.20 1008.61 1008.64 1009.11 1009.66 1010.33 1010.95 1011.67 1012.37 1013.16 1013.76 1014.26 1014.81 1015.21 1015.54 1015.82
1013.20 1013.27 1013.34 1013.35 1013.30 1013.33 1013.60 1013.94 1014.12 1014.16 1013.73 1013.58 1012.59 1012.62 1013.25 1013.06 1011.59 1010.89 1010.50 1010.01 1009.43 1008.08 1007.86 1007.55 1007.41 1007.00 1007.47 1007.73 1007.50 1008.08 1007.59 1007.26 1006.47 1006.95 1006.97 1006.06 1007.43 1007.82 1008.37 1009.01 1009.51 1009.79 1010.24 1010.91 1011.72 1012.49 1013.20 1013.83 1014.33 1014.81 1015.27 1015.73 1016.14 1016.43
1013.14 1013.32 1013.49 1013.56 1013.60 1013.49 1013.82 1014.14 1014.38 1014.45 1013.95 1013.27 1012.72 1011.91 1011.42 1011.72 1010.86 1009.56 1008.63 1008.03 1007.60 1007.40 1007.41 1007.03 1007.47 1007.16 1007.96 1007.62 1008.15 1008.10 1007.71 1007.10 1007.27 1006.84 1006.41 1007.05 1008.06 1008.42 1008.99 1009.52 1010.17 1010.65 1011.24 1012.01 1012.72 1013.43 1014.08 1014.65 1015.10 1015.44 1015.95 1016.36 1016.72 1017.02
1013.03 1013.38 1013.62 1013.68 1013.64 1013.71 1014.12 1014.48 1014.54 1014.49 1014.30 1012.56 1011.23 1011.17 1010.19 1009.48 1008.53 1007.45 1006.93 1006.56 1007.10 1007.30 1007.43 1007.10 1007.16 1007.09 1007.46 1007.85 1007.93 1007.82 1007.40 1007.69 1006.88 1006.15 1005.93 1007.45 1008.41 1008.98 1009.52 1010.04 1010.71 1011.33 1012.08 1012.73 1013.38 1014.05 1014.60 1015.16 1015.80 1016.30 1016.62 1016.85 1017.08 1017.35
1013.17 1013.51 1013.56 1013.70 1013.52 1013.79 1014.12 1014.33 1014.56 1014.40 1013.40 1011.98 1010.65 1009.50 1008.62 1007.36 1006.97 1007.07 1006.76 1007.19 1007.26 1007.04 1006.93 1006.76 1007.02 1006.98 1007.30 1007.62 1007.11 1007.48 1007.54 1006.92 1006.42 1006.05 1006.69 1008.07 1008.97 1009.58 1010.00 1010.57 1011.31 1012.07 1012.77 1013.30 1013.92 1014.61 1015.21 1015.67 1016.22 1016.79 1017.20 1017.40 1017.54 1017.71
1013.43 1013.58 1013.70 1013.54 1013.57 1014.01 1014.26 1014.35 1014.72 1014.06 1013.03 1011.68 1010.05 1008.63 1007.51 1007.50 1007.49 1007.54 1007.41 1007.20 1007.42 1006.93 1006.85 1006.67 1006.64 1006.84 1007.16 1006.83 1007.04 1007.03 1006.69 1006.15 1006.00 1006.65 1007.92 1009.00 1009.70 1010.27 1010.81 1011.38 1011.99 1012.65 1013.27 1013.94 1014.62 1015.24 1015.72 1016.10 1016.62 1017.15 1017.45 1017.71 1018.12 1018.50
1013.42 1013.51 1013.54 1013.68 1013.91 1014.17 1014.37 1014.66 1014.47 1013.79 1012.72 1011.23 1009.51 1008.67 1007.29 1006.56 1006.90 1006.89 1006.84 1007.19 1007.48 1007.24 1006.50 1006.29 1006.35 1006.88 1006.95 1006.79 1006.55 1006.24 1006.32 1006.35 1006.89 1007.65 1008.82 1010.00 1010.58 1010.95 1011.41 1012.09 1012.71 1013.30 1013.95 1014.67 1015.23 1015.70 1016.23 1016.71 1017.04 1017.29 1017.65 1018.07 1018.38 1018.54
1013.24 1013.28 1013.43 1013.77 1014.06 1014.27 1014.55 1014.62 1013.82 1012.57 1011.14 1009.71 1008.59 1007.99 1007.76 1007.29 1006.99 1007.36 1007.25 1007.76 1007.72 1007.00 1006.43 1006.42 1006.51 1006.53 1006.35 1005.98 1005.79 1006.15 1006.63 1007.43 1007.90 1008.53 1009.49 1010.77 1011.36 1011.42 1012.14 1012.72 1013.32 1013.95 1014.61 1015.12 1015.57 1016.12 1016.50 1016.67 1017.00 1017.37 1017.95 1018.36 1018.72 1019.02
1013.36 1013.46 1013.77 1014.01 1014.15 1013.86 1013.83 1013.43 1012.51 1011.18 1010.10 1009.54 1008.95 1008.44 1007.80 1007.63 1007.74 1007.83 1007.74 1008.00 1007.45 1007.01 1006.90 1007.14 1006.78 1006.24 1005.77 1005.82 1005.98 1006.19 1006.94 1007.78 1009.00 1009.45 1010.60 1011.31 1011.77 1012.06 1012.78 1013.36 1013.79 1014.40 1014.95 1015.41 1015.86 1015.82 1016.18 1016.54 1017.01 1017.42 1017.92 1018.28 1018.70 1019.09
1013.79 1013.89 1013.90 1013.91 1013.97 1013.00 1012.52 1012.29 1011.92 1010.75 1009.72 1009.21 1008.72 1008.62 1008.46 1008.22 1008.24 1008.00 1007.94 1008.10 1008.03 1007.67 1007.01 1006.72 1006.30 1006.28 1006.32 1007.06 1007.07 1007.06 1007.43 1008.12 1008.95 1010.09 1011.00 1011.77 1012.21 1012.64 1013.10 1013.49 1013.94 1014.68 1015.05 1015.56 1015.76 1016.21 1016.42 1016.78 1017.03 1017.24 1017.92 1018.40 1018.66 1018.78
1014.10 1014.13 1014.16 1013.76 1013.23 1012.71 1012.20 1011.25 1010.71 1010.38 1009.72 1009.26 1008.88 1008.73 1008.43 1007.99 1008.57 1008.66 1008.58 1007.94 1007.74 1007.63 1007.04 1006.74 1007.28 1007.67 1008.11 1008.22 1008.22 1008.24 1008.41 1008.54 1008.87 1009.58 1010.50 1011.68 1012.03 1012.51 1013.17 1013.58 1014.18 1014.14 1014.38 1014.75 1015.54 1016.24 1016.65 1017.06 1017.51 1017.84 1017.90 1018.08 1018.41 1018.76
1013.60 1014.03 1013.65 1013.43 1012.80 1012.32 1011.69 1011.22 1010.75 1010.36 1009.84 1009.39 1008.83 1008.59 1008.75 1008.85 1009.02 1009.04 1008.95 1008.41 1007.87 1008.05 1007.99 1007.81 1007.86 1008.28 1008.65 1008.86 1009.27 1008.94 1009.15 1009.36 1009.50 1010.17 1010.65 1011.57 1012.03 1012.54 1012.72 1013.13 1013.44 1013.60 1013.82 1014.73 1015.31 1016.09 1016.49 1017.07 1017.22 1017.67 1017.90 1018.14 1018.42 1018.55
1013.93 1013.66 1013.14 1012.85 1012.64 1012.45 1012.04 1011.31 1010.55 1010.20 1009.66 1009.43 1009.22 1008.79 1008.67 1009.00 1009.12 1009.23 1008.74 1008.14 1007.83 1007.84 1008.23 1008.43 1008.88 1008.97 1008.83 1009.51 1009.71 1009.84 1009.90 1010.06 1010.23 1010.51 1011.24 1011.60 1012.08 1012.29 1012.52 1012.82 1013.04 1013.38 1013.92 1014.64 1015.27 1015.54 1016.29 1016.94 1017.15 1017.24 1017.31 1017.72 1018.07 1018.28
1013.64 1012.76 1012.28 1012.15 1012.16 1012.17 1011.87 1011.24 1010.99 1010.53 1010.15 1009.85 1009.65 1009.40 1009.25 1009.34 1009.52 1008.92 1008.59 1007.92 1007.78 1008.43 1008.77 1009.22 1009.18 1009.56 1009.61 1009.75 1009.80 1009.99 1010.13 1010.04 1010.43 1010.96 1011.17 1011.44 1011.81 1012.24 1012.54 1012.78 1013.16 1013.75 1014.28 1014.83 1015.44 1015.60 1015.92 1016.23 1016.74 1017.01 1017.22 1017.31 1017.61 1018.17
1013.07 1012.90 1012.46 1012.30 1011.73 1011.52 1011.15 1010.90 1010.78 1010.56 1010.29 1010.19 1009.92 1009.70 1009.63 1009.72 1009.38 1009.10 1008.55 1007.81 1007.65 1008.10 1008.37 1009.01 1008.98 1009.21 1009.64 1010.08 1010.49 1010.43 1010.55 1010.49 1010.84 1011.23 1011.35 1011.53 1011.85 1012.25 1012.46 1012.78 1013.62 1013.95 1014.23 1014.84 1015.28 1015.51 1015.65 1016.11 1016.39 1016.75 1016.58 1016.89 1017.06 1017.55
1012.52 1011.87 1011.85 1010.79 1010.92 1010.75 1010.62 1010.34 1010.30 1010.20 1010.16 1010.06 1009.89 1009.76 1009.81 1009.48 1009.20 1008.66 1008.36 1008.17 1007.95 1008.05 1008.27 1008.62 1008.64 1009.39 1009.68 1010.31 1010.92 1011.29 1011.14 1010.96 1011.09 1011.24 1011.63 1011.79 1011.80 1011.90 1012.18 1012.65 1013.45 1013.99 1013.94 1014.04 1014.78 1015.28 1015.67 1015.66 1015.85 1016.21 1016.47 1016.62 1017.07 1017.07
1011.93 1010.98 1011.01 1011.05 1010.44 1010.59 1010.39 1010.13 1009.92 1009.87 1009.75 1009.48 1009.29 1009.40 1009.45 1009.17 1008.66 1008.48 1008.38 1008.45 1008.29 1008.50 1008.59 1008.72 1008.69 1009.07 1009.66 1010.09 1010.51 1010.87 1011.38 1011.60 1011.53 1011.34 1011.86 1012.30 1012.33 1012.29 1012.86 1013.35 1013.96 1014.42 1014.45 1014.69 1014.40 1014.59 1014.84 1015.08 1015.43 1015.54 1015.77 1016.05 1016.17 1016.71
1010.74 1010.38 1010.46 1010.60 1010.40 1010.30 1009.99 1009.85 1009.67 1009.36 1009.05 1009.15 1009.09 1008.80 1008.68 1008.53 1008.77 1009.11 1009.22 1009.19 1009.13 1009.40 1009.26 1009.17 1009.08 1009.57 1009.80 1010.06 1010.55 1011.14 1011.71 1011.98 1012.43 1012.33 1012.47 1012.61 1012.73 1012.91 1013.28 1013.39 1013.66 1014.58 1014.65 1014.51 1014.54 1014.65 1014.78 1014.80 1014.99 1015.02 1015.21 1015.54 1015.84 1016.21
1010.19 1009.83 1010.37 1010.35 1010.49 1010.46 1010.17 1009.50 1009.04 1008.91 1008.87 1008.72 1008.59 1008.41 1008.53 1009.15 1009.85 1009.83 1009.68 1009.45 1009.45 1009.39 1009.33 1009.28 1009.49 1009.57 1010.13 1010.39 1010.83 1010.96 1011.67 1012.04 1012.18 1012.18 1012.29 1012.28 1012.77 1013.23 1013.45 1013.48 1013.47 1014.03 1014.33 1014.42 1014.98 1015.28 1015.22 1015.51 1015.37 1015.20 1015.33 1015.47 1015.71 1015.63
1009.21 1009.48 1010.03 1010.37 1010.37 1009.97 1009.59 1009.13 1008.72 1008.43 1008.57 1008.46 1008.27 1008.56 1008.90 1009.43 1009.54 1009.60 1009.30 1009.13 1008.88 1009.12 1009.16 1009.47 1009.64 1010.23 1010.67 1010.85 1010.99 1011.25 1011.66 1011.88 1011.98 1011.86 1012.03 1012.32 1012.52 1012.92 1013.34 1013.42 1013.34 1013.42 1013.62 1013.83 1014.09 1014.49 1015.58 1015.72 1015.54 1015.67 1015.54 1015.23 1015.32 1015.61
1008.41 1008.94 1009.63 1009.64 1009.43 1009.22 1009.27 1009.24 1009.13 1009.10 1008.71 1008.47 1008.57 1008.29 1008.28 1008.98 1009.10 1009.23 1009.00 1008.89 1008.94 1009.29 1009.42 1009.66 1009.91 1010.46 1010.74 1010.96 1011.24 1011.64 1011.87 1012.09 1012.43 1012.64 1012.66 1012.55 1012.62 1012.59 1012.83 1012.96 1013.10 1013.53 1013.52 1014.08 1014.40 1014.30 1014.44 1014.78 1014.54 1014.41 1014.71 1014.88 1015.16 1015.17
1008.04 1008.36 1008.57 1008.81 1008.69 1008.83 1008.60 1008.77 1008.81 1008.84 1008.71 1008.59 1008.57 1008.52 1008.63 1008.60 1008.90 1009.07 1009.01 1009.02 1008.81 1009.08 1009.93 1009.84 1009.79 1010.53 1011.00 1011.19 1011.32 1011.66 1012.16 1012.02 1011.97 1012.50 1012.72 1013.03 1012.98 1012.99 1013.38 1013.23 1013.10 1013.83 1013.96 1014.02 1014.20 1014.21 1014.41 1014.45 1014.53 1014.36 1014.46 1014.62 1014.82 1015.06
1007.98 1008.28 1008.44 1008.73 1008.29 1008.32 1008.21 1008.37 1008.21 1008.05 1008.09 1007.83 1007.76 1007.82 1008.00 1008.09 1008.08 1008.20 1008.46 1008.93 1008.82 1008.56 1008.97 1009.49 1009.73 1010.31 1010.88 1011.04 1011.18 1011.38 1012.05 1012.03 1012.76 1013.18 1013.55 1013.74 1013.91 1013.78 1013.52 1013.59 1013.90 1013.75 1013.76 1013.80 1013.96 1014.03 1014.03 1014.17 1014.17 1014.32 1014.53 1014.52 1014.75 1015.07
Wind_Speed
16 17 21 25 23 5 12 14 11 24 23 21 20 18 17 13 9 6 3 3 5 4 7 4 4 7 9 3 4 9 6 6 10 12 11 7 2 5 7 5 4 5 5 8 8 11 8 17 2 8 9 10 10 13
16 17 21 24 18 6 13 14 13 17 20 20 19 18 17 13 9 5 2 1 5 5 6 4 4 3 6 7 7 4 3 3 5 3 3 7 4 6 5 3 1 6 5 5 6 5 7 9 9 8 9 6 7 8
18 16 19 22 18 7 10 12 15 12 16 18 19 17 17 12 3 7 1 2 2 3 6 7 5 3 1 2 5 5 6 3 4 4 6 3 4 3 2 6 7 10 7 3 6 6 9 8 10 10 8 8 5 6
17 15 16 20 20 10 10 11 11 13 13 15 18 17 16 10 6 7 2 4 3 5 6 8 6 5 5 4 2 2 4 3 3 4 3 2 2 1 6 5 8 5 9 10 13 11 10 10 8 6 2 2 3 4
16 15 13 17 22 12 9 11 10 15 14 21 21 21 17 10 4 2 1 1 2 7 4 6 5 6 6 4 4 3 5 5 2 4 5 4 1 1 3 5 4 9 5 3 1 14 5 11 7 7 3 4 4 4
14 13 11 14 17 20 12 16 13 16 19 23 21 19 15 8 4 1 4 5 4 3 5 4 7 7 6 4 4 1 2 2 2 2 1 4 5 5 3 2 5 5 12 9 8 13 14 11 4 7 7 7 6 7
13 12 11 8 12 16 19 15 20 24 23 22 20 16 12 6 3 2 6 5 1 2 5 2 5 4 6 7 5 4 2 1 4 2 3 2 6 5 6 3 5 9 10 12 14 15 13 7 4 7 8 9 5 9
10 11 9 5 7 12 14 15 15 17 21 19 18 14 8 7 6 4 3 2 4 5 4 5 6 7 7 5 5 3 4 4 5 5 3 5 5 4 1 9 9 12 13 11 14 10 11 8 9 8 7 7 8 8
7 8 9 7 6 8 11 10 10 14 18 18 18 16 5 5 7 4 7 3 3 5 4 4 6 7 8 8 5 5 4 6 4 5 6 1 5 6 11 10 12 12 11 11 9 10 10 9 10 9 8 6 5 6
3 5 7 8 4 8 10 9 9 10 12 17 13 7 6 4 12 11 3 6 5 4 3 6 3 8 11 8 7 6 5 7 5 7 6 5 8 12 7 3 6 10 13 14 12 9 11 10 8 6 6 6 6 5
4 0 5 9 6 9 12 11 9 11 7 5 7 4 5 5 5 5 4 6 6 5 6 5 7 9 9 8 8 3 3 3 4 6 5 8 7 10 8 8 6 10 10 11 9 10 9 9 7 6 5 4 5 5
6 4 5 9 7 6 12 15 12 3 1 1 1 7 5 4 5 5 6 5 6 6 7 8 7 7 5 1 3 3 3 2 2 6 4 3 9 12 11 9 10 11 11 13 13 12 10 8 7 6 6 5 5 4
9 7 5 7 7 7 13 12 5 5 5 4 5 6 5 4 2 7 9 6 5 5 8 8 8 5 5 4 3 5 5 5 3 5 5 6 10 11 12 13 12 13 15 15 14 12 11 9 7 6 6 5 5 5
10 9 6 4 6 13 11 9 3 1 3 5 6 3 6 7 7 5 8 7 6 7 10 11 9 6 7 7 5 4 3 3 5 5 4 11 11 13 12 13 15 15 15 13 12 11 10 9 8 7 6 5 6 6
12 8 5 1 3 14 8 6 6 3 4 4 5 4 9 1 5 4 6 7 5 9 11 10 7 5 9 4 4 3 5 5 6 1 10 11 13 13 13 14 15 14 12 11 10 8 8 8 8 7 7 6 6 6
11 7 0 6 10 12 10 7 2 3 4 4 5 5 4 7 7 7 7 8 5 7 7 8 6 5 4 3 4 5 4 5 4 5 10 11 13 13 13 13 13 12 11 10 8 7 7 7 7 7 7 7 7 6
6 0 4 10 12 8 10 4 1 4 4 4 6 7 6 6 8 7 6 9 5 10 8 5 6 7 4 4 6 4 3 8 7 6 8 13 14 12 13 11 12 11 11 9 8 7 7 7 7 7 7 7 6 7
0 3 16 15 7 3 3 0 4 6 7 5 3 6 3 0 6 6 4 6 7 9 8 3 2 5 7 7 7 6 6 5 5 6 12 11 12 13 12 13 12 11 9 8 8 7 6 6 6 6 7 7 5 6
4 5 9 10 5 3 6 6 3 3 1 3 4 4 4 4 5 5 3 6 6 5 4 4 4 6 3 2 5 7 7 8 7 8 9 12 13 14 13 12 11 10 9 8 8 7 6 3 4 7 5 6 5 5
10 9 5 1 5 3 2 1 2 4 3 2 3 4 3 4 5 5 7 7 6 5 5 6 4 1 5 5 4 4 6 9 8 10 10 9 10 13 13 11 9 9 8 7 5 1 6 4 3 4 3 5 3 5
5 4 3 4 2 3 2 2 3 2 2 2 3 3 3 5 5 5 3 4 7 8 8 4 7 5 4 4 2 2 4 6 8 11 11 10 10 10 10 8 9 9 7 7 5 5 5 6 5 4 4 6 5 2
5 4 2 1 3 2 2 1 4 2 1 1 2 2 4 5 5 4 2 2 2 2 3 5 6 6 4 5 3 4 7 7 6 7 10 11 8 9 9 9 9 7 6 8 7 5 3 6 5 7 7 3 4 4
4 4 3 3 1 2 3 3 2 4 2 3 2 2 2 3 3 3 3 4 2 1 4 4 5 3 5 7 6 7 7 7 7 7 9 7 8 7 6 7 6 5 5 6 4 5 7 7 5 4 3 5 2 4
1 3 1 3 4 2 3 2 1 1 1 1 1 2 2 2 1 3 3 4 4 6 5 6 6 7 6 8 6 6 7 6 7 8 8 6 5 5 5 6 4 4 3 4 3 4 5 5 5 7 7 6 6 3
1 2 3 2 2 4 4 5 4 2 2 2 2 1 2 3 2 3 4 4 6 5 5 5 5 2 3 4 5 6 3 6 5 5 5 5 5 5 5 6 4 4 4 5 5 5 5 6 6 7 8 6 8 9
2 2 1 1 3 3 4 5 6 6 4 4 4 2 3 3 4 5 4 5 4 4 5 6 6 6 5 7 6 5 4 3 5 6 5 4 4 4 6 6 4 2 4 4 6 5 5 5 8 9 9 10 6 7
3 5 4 2 1 3 2 1 2 3 5 5 4 6 5 5 5 4 4 2 4 3 2 4 5 6 7 7 7 7 6 4 3 1 5 4 5 4 4 2 2 1 6 6 6 6 7 6 4 8 9 9 8 10
4 3 4 6 4 2 2 5 6 6 4 3 3 6 3 3 2 3 2 1 1 2 3 4 4 7 3 5 7 7 6 5 4 4 4 4 4 2 2 3 3 7 5 5 5 7 7 7 9 9 6 8 10 9
5 5 5 5 3 3 4 4 4 4 3 4 4 4 1 4 3 3 1 3 3 4 5 6 4 5 6 7 7 7 7 7 9 10 11 7 6 4 4 6 5 6 6 8 6 4 6 6 7 4 6 6 8 11
6 5 4 5 4 4 4 5 5 2 4 5 2 3 4 3 3 5 4 5 5 3 6 6 7 7 7 8 7 6 5 4 4 5 5 4 2 1 4 5 5 5 5 4 5 7 4 6 7 8 8 7 6 5
4 6 5 7 5 5 7 4 2 4 5 5 6 7 2 4 4 4 4 2 4 4 4 5 3 5 6 7 7 8 7 6 6 6 5 5 5 5 5 4 2 3 4 1 5 6 6 7 9 8 7 9 10 9
5 6 4 4 3 5 5 6 5 5 5 6 6 4 4 4 5 4 5 4 5 5 2 3 5 6 5 4 4 5 2 6 5 4 6 5 6 2 3 7 3 5 5 5 6 8 7 9 7 7 7 10 11 12
4 3 3 4 5 5 7 6 7 6 6 6 7 10 9 7 5 3 5 6 6 4 6 6 5 6 6 3 3 3 1 2 9 7 5 5 6 6 5 2 2 5 5 4 4 6 7 9 8 7 7 6 6 5
Wind_Direction
336 335 332 331 336 205 178 166 158 159 159 164 166 160 161 165 206 260 82 30 323 279 88 21 24 13 323 300 299 115 186 193 191 230 222 216 172 229 227 72 225 250 256 251 280 249 211 353 73 4 359 339 347 18
343 342 341 349 3 97 137 146 143 154 155 160 155 157 148 159 206 271 143 142 274 276 43 337 344 331 322 356 324 189 48 145 11 285 47 17 285 163 272 198 348 235 344 346 22 61 75 31 71 62 54 43 14 21
353 351 350 353 359 117 134 142 144 139 151 150 150 151 154 145 174 283 213 134 231 319 237 207 174 77 45 326 8 290 72 1 82 336 326 101 24 351 207 271 178 187 161 211 155 47 79 83 85 88 84 85 61 36
355 359 360 0 8 137 144 149 149 148 143 144 140 139 130 141 192 285 266 55 320 294 269 118 133 127 319 308 243 307 73 98 286 262 236 297 318 236 298 86 278 125 220 95 107 119 111 118 119 147 183 234 316 19
357 3 12 11 20 38 191 177 154 159 155 146 139 135 137 144 207 292 341 213 295 309 297 121 135 132 171 222 153 61 41 306 213 186 222 221 26 319 298 308 32 332 61 84 215 161 141 149 151 215 35 35 14 337
359 4 19 23 29 24 41 197 164 163 148 139 137 131 136 144 219 153 201 188 211 296 284 206 97 159 159 173 156 70 66 312 325 300 302 78 77 294 237 253 55 73 81 120 112 138 130 144 136 27 65 48 61 57
358 6 12 46 45 41 31 80 148 137 132 128 127 131 132 139 63 308 1 12 35 223 257 200 169 166 162 166 164 168 216 40 309 118 238 292 146 235 268 139 114 114 103 115 134 127 135 131 97 87 92 97 91 68
358 6 15 50 65 70 55 59 72 110 114 115 113 118 119 66 332 246 136 191 295 242 264 255 94 156 199 193 181 152 210 203 174 264 100 251 155 233 282 135 161 114 128 137 149 162 128 117 122 124 126 110 92 79
351 7 21 30 137 106 90 81 75 107 124 128 124 132 122 231 203 106 119 208 267 300 284 262 167 150 171 221 120 187 266 201 118 221 225 195 217 209 144 190 130 141 158 153 142 130 134 130 125 126 121 121 83 63
319 3 38 33 101 140 126 119 132 121 129 143 158 193 158 118 123 133 160 188 202 206 229 258 344 123 186 183 177 169 193 250 171 202 105 229 229 99 120 83 127 160 150 156 159 149 137 138 126 106 78 58 55 54
231 70 60 45 87 154 141 140 140 134 135 211 201 72 73 116 220 206 163 193 179 213 197 233 213 139 206 181 188 145 189 164 241 131 219 183 210 149 147 154 160 130 159 150 133 128 127 122 130 115 90 68 65 56
207 164 91 57 60 150 154 148 170 213 308 306 20 110 142 222 221 186 184 168 210 210 173 181 175 176 134 293 70 153 241 183 260 142 215 237 111 133 133 143 142 150 133 117 121 120 114 106 102 105 99 80 66 59
188 156 111 56 33 142 158 148 191 286 281 198 216 165 187 171 206 202 187 178 190 169 176 155 150 157 145 208 141 195 212 214 104 199 213 82 125 135 135 138 136 133 126 123 117 114 108 104 91 93 100 90 93 83
165 143 122 63 356 160 151 152 183 190 291 232 165 151 203 184 211 211 185 154 114 172 173 178 161 162 166 177 190 197 99 207 215 231 182 126 145 137 146 143 139 133 131 128 122 122 117 102 99 88 76 79 94 96
140 128 102 13 249 153 149 131 96 250 257 232 214 197 203 267 121 170 82 103 177 167 178 160 163 163 163 170 220 144 172 224 210 237 100 117 137 149 146 142 137 133 134 132 120 115 114 108 104 96 93 101 109 110
128 107 31 311 135 138 141 91 11 302 288 257 251 227 128 169 156 166 186 136 171 160 176 169 177 125 188 192 161 184 213 231 130 91 107 132 145 141 143 138 138 138 129 121 116 111 115 110 101 108 115 100 89 103
104 217 229 176 131 124 100 180 21 239 250 231 229 224 199 188 164 162 171 133 184 179 182 165 189 163 152 223 193 207 203 69 89 100 136 138 148 147 145 134 134 131 123 120 127 119 106 116 126 130 123 127 119 126
37 122 135 128 137 43 95 241 242 228 221 211 209 158 174 137 141 144 124 132 193 202 182 183 99 173 198 185 200 158 119 99 94 136 132 141 149 146 142 139 138 135 132 134 126 127 143 137 138 131 133 133 119 121
119 119 129 133 187 188 183 206 242 260 158 150 155 166 174 137 49 97 155 165 217 230 143 192 196 232 178 117 48 112 116 129 143 130 128 145 148 143 142 146 140 137 143 140 153 177 143 152 127 137 164 148 153 164
96 85 90 65 263 256 82 267 227 259 171 123 140 140 147 141 148 161 150 165 184 203 194 215 200 103 73 64 47 53 123 128 143 141 144 147 143 145 150 150 153 139 154 152 170 2 139 179 149 153 138 118 199 183
203 127 215 243 267 272 255 277 205 19 6 110 102 118 161 142 112 127 142 192 179 196 215 216 95 78 93 60 98 156 149 156 168 159 154 146 157 149 154 154 151 183 165 166 141 145 186 157 159 180 205 212 143 224
106 142 265 160 267 253 276 30 330 5 350 196 120 144 123 136 132 147 190 179 210 58 75 320 86 126 130 103 147 180 128 170 92 99 103 138 147 159 175 163 193 182 171 145 155 158 106 165 187 173 182 170 221 205
164 212 195 172 195 55 292 288 309 355 131 113 177 106 129 115 105 216 207 201 166 104 94 108 96 68 109 122 134 129 144 146 157 154 149 169 166 181 172 175 191 171 153 150 195 158 158 135 170 227 184 191 254 167
136 257 232 155 168 166 208 166 160 42 103 118 152 123 125 98 170 220 215 187 151 144 167 155 165 159 171 159 159 151 165 182 130 148 182 147 156 160 184 188 159 117 103 121 174 218 203 202 144 201 209 206 199 187
300 297 156 262 182 163 166 153 147 169 119 153 173 146 167 191 203 207 216 255 152 182 154 179 198 106 181 140 160 161 191 140 138 146 158 181 175 154 206 163 151 174 176 170 194 195 206 211 203 229 217 213 227 187
12 168 191 171 140 205 166 175 180 177 169 164 198 158 190 211 226 230 199 223 210 193 178 193 175 166 163 146 150 155 205 144 156 169 153 206 229 203 208 192 158 173 232 209 154 180 234 225 209 219 237 212 229 245
231 183 172 257 299 148 185 186 167 174 195 199 183 184 187 217 215 182 149 171 196 164 228 206 215 172 170 163 165 143 148 178 219 178 134 194 225 224 115 111 114 101 184 234 250 254 257 247 229 227 217 232 215 210
252 221 179 179 192 215 186 186 188 204 193 160 208 200 226 250 47 57 128 145 86 157 195 205 193 186 173 148 130 145 159 124 136 147 149 187 193 203 240 265 64 68 316 321 292 267 265 256 234 246 221 210 211 224
225 186 153 204 173 213 232 232 209 192 203 194 212 208 182 61 58 3 205 148 186 177 182 179 186 157 133 152 156 169 160 180 188 195 207 209 178 211 226 237 201 196 216 223 173 270 317 349 352 320 298 271 221 216
199 169 146 183 215 224 227 215 234 175 184 225 264 136 165 125 141 195 197 205 151 192 166 158 180 152 180 176 179 159 168 187 234 254 213 236 244 152 179 216 239 239 223 238 235 174 153 238 215 231 235 229 211 213
174 161 180 202 221 221 204 235 174 258 253 219 214 253 125 155 167 201 222 164 136 148 180 170 192 160 187 187 183 185 191 181 193 222 270 274 243 231 235 258 242 237 274 256 274 263 238 236 257 237 235 209 218 245
193 192 208 223 222 186 191 180 199 204 225 220 234 242 233 211 190 196 197 205 209 167 107 257 158 161 180 200 194 128 187 153 181 214 227 215 252 111 198 247 196 196 243 242 234 242 230 241 247 241 218 215 211 218
171 192 226 260 186 182 189 190 201 203 197 205 193 187 191 193 196 168 152 199 235 203 158 176 152 143 145 201 176 136 205 244 69 81 94 74 41 359 308 214 230 272 261 260 279 276 249 233 243 229 220 227 197 221